Home > Weather > Winsen (Luhe) > Past weeks

Flag for Germany Past Weather in Winsen (Luhe), Lower Saxony, Germany — Yesterday and Last 2 Weeks

Now
66 °F

Scattered clouds.


Feels Like: 66 °F
Forecast: 53 / 68 °F
Wind: 12 mph from Southwest

Location: Hamburg-Fuhlsbuettel

Current Time: Jun 26, 2016 at 7:21:32 PM

Latest Report: Jun 26, 2016 at 6:50 PM


Visibility: N/A

Pressure: 29.98 "Hg

Humidity: 60%

Dew Point: 52 °F

Location of Winsen (Luhe)Location

Past Weather in Winsen (Luhe) — Graph

°F

Winsen (Luhe) Temperature Yesterday

Maximum temperature yesterday: 68 °F (at 4:50 PM)
Minimum temperature yesterday: 59 °F (at 11:50 PM)
Average temperature yesterday: 65 °F

High & Low Weather Summary for the Past Weeks

 TemperatureHumidityPressure
High90 °F (Jun 23, 5:50 PM)100% (Jun 14, 4:20 AM)30.21 "Hg (Jun 14, 4:20 AM)
Low46 °F (Jun 20, 1:20 AM)40% (Jun 23, 3:50 PM)29.45 "Hg (Jun 14, 12:20 PM)
Average63 °F81%29.86 "Hg
* Reported Jun 11 6:20 PM — Jun 26 6:20 PM, Winsen (Luhe), Weather by CustomWeather, © 2016

Note: Actual official high and low records may vary slightly from our data, if they occured in-between our weather recording intervals... More about our weather records

Advertising

Winsen (Luhe) Weather History for the Previous 24 Hours

Scroll right to see more
 ConditionsComfort  
Time TempWeatherWind HumidityBarometerVisibility
6:20 PM
Sun, Jun 26
66 °FScattered clouds.12 mph56%29.98 "HgN/A
5:50 PM68 °FScattered clouds.13 mph56%29.98 "HgN/A
5:20 PM66 °FScattered clouds.10 mph60%29.98 "HgN/A
4:50 PM68 °FPartly sunny.13 mph56%29.98 "HgN/A
4:20 PM68 °FPartly sunny.15 mph56%29.98 "HgN/A
3:50 PM70 °FBroken clouds.16 mph57%29.98 "HgN/A
3:20 PM68 °FScattered clouds.12 mph60%29.98 "HgN/A
2:50 PM66 °FScattered clouds.15 mph56%29.98 "HgN/A
2:20 PM66 °FScattered clouds.13 mph56%29.98 "HgN/A
1:50 PM66 °FScattered clouds.13 mph56%29.98 "HgN/A
1:20 PM64 °FScattered clouds.12 mph64%29.98 "HgN/A
12:50 PM64 °FScattered clouds.13 mph60%29.98 "HgN/A
12:20 PM63 °FScattered clouds.14 mph68%29.98 "HgN/A
11:50 AM64 °FPartly sunny.16 mph68%29.98 "HgN/A
11:20 AM63 °FPartly sunny.13 mph73%29.98 "HgN/A
10:50 AM63 °FPartly sunny.13 mph68%29.98 "HgN/A
10:20 AM63 °FPartly sunny.10 mph77%29.98 "HgN/A
9:50 AM61 °FPartly sunny.14 mph83%29.98 "HgN/A
9:20 AM59 °FBroken clouds.9 mph82%29.98 "HgN/A
8:50 AM59 °FPartly sunny.12 mph88%29.95 "HgN/A
8:20 AM57 °FBroken clouds.10 mph94%29.95 "HgN/A
7:50 AM57 °FPartly sunny.15 mph94%29.95 "HgN/A
7:20 AM57 °FBroken clouds.10 mph94%29.95 "HgN/A
6:50 AM57 °FBroken clouds.8 mph94%29.95 "HgN/A
6:20 AM57 °FScattered clouds.8 mph94%29.92 "HgN/A
5:50 AM57 °FPassing clouds.7 mph94%29.92 "HgN/A
5:20 AM57 °FPassing clouds.8 mph94%29.92 "HgN/A
4:50 AM57 °FPassing clouds.9 mph94%29.92 "HgN/A
4:20 AM57 °FPassing clouds.13 mph94%29.89 "Hg4 mi
3:50 AM57 °FPassing clouds.10 mph94%29.89 "Hg2 mi
3:20 AM57 °FPassing clouds.12 mph100%29.89 "HgN/A
2:50 AM57 °FPassing clouds.14 mph100%29.86 "HgN/A
2:20 AM57 °FPassing clouds.13 mph100%29.86 "HgN/A
1:50 AM57 °FPassing clouds.15 mph100%29.86 "HgN/A
1:20 AM57 °FPassing clouds.15 mph100%29.86 "Hg4 mi
12:50 AM59 °FPassing clouds.16 mph94%29.86 "Hg2 mi
12:20 AM59 °FPassing clouds.17 mph94%29.86 "Hg2 mi
11:50 PM
Sat, Jun 25
59 °FPassing clouds.17 mph100%29.83 "Hg4 mi
11:20 PM61 °FDrizzle. Fog.13 mph94%29.83 "Hg2 mi
10:50 PM63 °FDrizzle. Fog.10 mph100%29.80 "Hg1 mi
10:20 PM64 °FDrizzle. Fog.9 mph94%29.80 "Hg1 mi
9:50 PM64 °FFog.8 mph94%29.80 "Hg2 mi
9:20 PM64 °FPartly sunny.9 mph100%29.80 "Hg4 mi
8:50 PM64 °FPartly sunny.7 mph100%29.80 "Hg4 mi
8:20 PM66 °FPartly sunny.7 mph94%29.80 "Hg5 mi
7:50 PM66 °FPartly sunny.9 mph94%29.80 "Hg5 mi
7:20 PM66 °FBroken clouds.10 mph94%29.80 "HgN/A
Weather by CustomWeather, © 2016

See weather overviewHow to use our weather pages